| time (UTC) | temp C | wind direction | speed KPH | gust KPH | rain 1hr cm | rain 24hr cm | rain mn cm | humidity % | barometer mb |
| 20260504081513 | 12 | 102 | 0.0 | 4.8 | 0.00 | 0.00 | 0.00 | 72 | 1006.4 |
| 20260504081013 | 12 | 97 | 0.0 | 4.8 | 0.00 | 0.00 | 0.00 | 71 | 1006.4 |
| 20260504080511 | 12 | 231 | 0.0 | 6.4 | 0.00 | 0.00 | 0.00 | 71 | 1006.4 |
| 20260504050552 | 14 | 213 | 0.0 | 6.4 | 0.00 | 0.00 | 0.00 | 67 | 1008.1 |
| 20260504045555 | 14 | 227 | 0.0 | 3.2 | 0.00 | 0.00 | 0.00 | 66 | 1008.1 |
| 20260504045052 | 15 | 201 | 0.0 | 3.2 | 0.00 | 0.00 | 0.00 | 66 | 1008.1 |
| 20260504044601 | 15 | 221 | 0.0 | 3.2 | 0.00 | 0.00 | 0.00 | 66 | 1008.1 |
| 20260504044053 | 15 | 207 | 0.0 | 0.0 | 0.00 | 0.00 | 0.00 | 66 | 1008.1 |
| 20260504043551 | 15 | 212 | 0.0 | 4.8 | 0.00 | 0.00 | 0.00 | 66 | 1008.2 |
| 20260504043051 | 15 | 221 | 0.0 | 4.8 | 0.00 | 0.00 | 0.00 | 66 | 1008.3 |
| 20260504042550 | 15 | 198 | 0.0 | 3.2 | 0.00 | 0.00 | 0.00 | 66 | 1008.3 |
| 20260504042051 | 15 | 240 | 0.0 | 3.2 | 0.00 | 0.00 | 0.00 | 66 | 1008.3 |
| 20260504041550 | 15 | 200 | 0.0 | 1.6 | 0.00 | 0.00 | 0.00 | 66 | 1008.3 |
| 20260504041052 | 15 | 130 | 0.0 | 0.0 | 0.00 | 0.00 | 0.00 | 66 | 1008.3 |
| 20260504040551 | 15 | 246 | 0.0 | 4.8 | 0.00 | 0.00 | 0.00 | 66 | 1008.3 |
| 20260504035551 | 15 | 216 | 0.0 | 3.2 | 0.00 | 0.00 | 0.00 | 65 | 1008.3 |
| 20260504035050 | 15 | 220 | 0.0 | 4.8 | 0.00 | 0.00 | 0.00 | 65 | 1008.4 |
| 20260504034554 | 15 | 219 | 0.0 | 4.8 | 0.00 | 0.00 | 0.00 | 65 | 1008.4 |
| 20260504034050 | 15 | 233 | 0.0 | 1.6 | 0.00 | 0.00 | 0.00 | 64 | 1008.5 |
| 20260504033550 | 15 | 238 | 0.0 | 3.2 | 0.00 | 0.00 | 0.00 | 64 | 1008.5 |
| 20260504033056 | 15 | 228 | 0.0 | 3.2 | 0.00 | 0.00 | 0.00 | 63 | 1008.5 |
| 20260504032554 | 16 | 236 | 0.0 | 1.6 | 0.00 | 0.00 | 0.00 | 63 | 1008.6 |
| 20260504032050 | 16 | 200 | 0.0 | 3.2 | 0.00 | 0.00 | 0.00 | 63 | 1008.6 |
| 20260504031550 | 16 | 264 | 0.0 | 3.2 | 0.00 | 0.00 | 0.00 | 62 | 1008.6 |
| 20260504031049 | 16 | 259 | 0.0 | 6.4 | 0.00 | 0.00 | 0.00 | 62 | 1008.6 |
| 20260504030553 | 16 | 229 | 0.0 | 3.2 | 0.00 | 0.00 | 0.00 | 62 | 1008.6 |
| 20260504025549 | 16 | 259 | 0.0 | 3.2 | 0.00 | 0.00 | 0.00 | 61 | 1008.6 |
| 20260504025049 | 16 | 219 | 0.0 | 4.8 | 0.00 | 0.00 | 0.00 | 61 | 1008.5 |
| 20260504024549 | 16 | 274 | 0.0 | 4.8 | 0.00 | 0.00 | 0.00 | 61 | 1008.5 |
| 20260504024049 | 16 | 227 | 0.0 | 3.2 | 0.00 | 0.00 | 0.00 | 61 | 1008.5 |
| 20260504023549 | 16 | 214 | 0.0 | 3.2 | 0.00 | 0.00 | 0.00 | 60 | 1008.4 |
| 20260504023049 | 16 | 262 | 0.0 | 4.8 | 0.00 | 0.00 | 0.00 | 60 | 1008.4 |
| 20260504022549 | 16 | 208 | 0.0 | 4.8 | 0.00 | 0.00 | 0.00 | 60 | 1008.4 |
| 20260504022052 | 16 | 239 | 0.0 | 4.8 | 0.00 | 0.00 | 0.00 | 60 | 1008.4 |
| 20260504021549 | 16 | 239 | 0.0 | 8.0 | 0.00 | 0.00 | 0.00 | 60 | 1008.3 |
| 20260504021050 | 16 | 214 | 0.0 | 8.0 | 0.00 | 0.00 | 0.00 | 60 | 1008.3 |
| 20260504020551 | 16 | 203 | 0.0 | 8.0 | 0.00 | 0.00 | 0.00 | 60 | 1008.4 |
| 20260504015549 | 16 | 205 | 0.0 | 4.8 | 0.00 | 0.00 | 0.00 | 60 | 1008.4 |
| 20260504015051 | 16 | 254 | 0.0 | 0.0 | 0.00 | 0.00 | 0.00 | 60 | 1008.4 |
| 20260504014550 | 16 | 232 | 0.0 | 4.8 | 0.00 | 0.00 | 0.00 | 59 | 1008.4 |
| 20260504014048 | 16 | 258 | 0.0 | 4.8 | 0.00 | 0.00 | 0.00 | 59 | 1008.4 |
| 20260504013548 | 17 | 213 | 0.0 | 6.4 | 0.00 | 0.00 | 0.00 | 59 | 1008.3 |
| 20260504013051 | 17 | 247 | 0.0 | 6.4 | 0.00 | 0.00 | 0.00 | 58 | 1008.3 |
| 20260504012551 | 17 | 244 | 0.0 | 4.8 | 0.00 | 0.00 | 0.00 | 58 | 1008.3 |
| 20260504012048 | 17 | 200 | 0.0 | 3.2 | 0.00 | 0.00 | 0.00 | 58 | 1008.2 |
| 20260504011550 | 17 | 248 | 0.0 | 6.4 | 0.00 | 0.00 | 0.00 | 58 | 1008.2 |
| 20260504011049 | 17 | 271 | 0.0 | 6.4 | 0.00 | 0.00 | 0.00 | 58 | 1008.1 |
| 20260504010547 | 17 | 240 | 0.0 | 3.2 | 0.00 | 0.00 | 0.00 | 57 | 1008.1 |
| 20260504005546 | 17 | 198 | 0.0 | 0.0 | 0.00 | 0.00 | 0.00 | 56 | 1008.1 |
| 20260504005146 | 17 | 253 | 0.0 | 0.0 | 0.00 | 0.00 | 0.00 | 56 | 1008.1 |
| 20260504004545 | 18 | 252 | 0.0 | 0.0 | 0.00 | 0.00 | 0.00 | 56 | 1008.1 |
| 20260504004046 | 18 | 248 | 0.0 | 1.6 | 0.00 | 0.00 | 0.00 | 55 | 1008.1 |
| 20260504003550 | 18 | 243 | 0.0 | 4.8 | 0.00 | 0.00 | 0.00 | 55 | 1008.1 |
| 20260504003045 | 18 | 252 | 0.0 | 4.8 | 0.00 | 0.00 | 0.00 | 54 | 1008.1 |
| 20260504002546 | 18 | 242 | 0.0 | 4.8 | 0.00 | 0.00 | 0.00 | 54 | 1008.1 |
| 20260504002044 | 18 | 253 | 0.0 | 6.4 | 0.00 | 0.00 | 0.00 | 54 | 1008.1 |
| 20260504001605 | 18 | 247 | 0.0 | 6.4 | 0.00 | 0.00 | 0.00 | 54 | 1008.0 |
| 20260504001044 | 18 | 230 | 1.6 | 6.4 | 0.00 | 0.00 | 0.00 | 53 | 1008.1 |
| 20260504000544 | 19 | 240 | 1.6 | 6.4 | 0.00 | 0.00 | 0.00 | 53 | 1008.1 |
| 20260503235546 | 19 | 276 | 0.0 | 12.9 | 0.00 | 0.00 | 0.00 | 52 | 1008.1 |
| 20260503235044 | 19 | 238 | 0.0 | 4.8 | 0.00 | 0.00 | 0.00 | 52 | 1008.2 |
| 20260503234544 | 19 | 248 | 1.6 | 4.8 | 0.00 | 0.00 | 0.00 | 52 | 1008.2 |
| 20260503234044 | 19 | 233 | 0.0 | 9.7 | 0.00 | 0.00 | 0.00 | 52 | 1008.2 |
| 20260503233543 | 20 | 257 | 1.6 | 9.7 | 0.00 | 0.00 | 0.00 | 51 | 1008.2 |
| 20260503233043 | 20 | 240 | 1.6 | 6.4 | 0.00 | 0.00 | 0.00 | 50 | 1008.2 |
| 20260503232546 | 20 | 250 | 1.6 | 6.4 | 0.00 | 0.00 | 0.00 | 51 | 1008.2 |
| 20260503232042 | 20 | 257 | 0.0 | 6.4 | 0.00 | 0.00 | 0.00 | 50 | 1008.3 |
| 20260503231542 | 20 | 233 | 0.0 | 12.9 | 0.00 | 0.00 | 0.00 | 49 | 1008.3 |
| 20260503231045 | 20 | 252 | 0.0 | 12.9 | 0.00 | 0.00 | 0.00 | 50 | 1008.4 |
| 20260503230541 | 20 | 235 | 3.2 | 11.3 | 0.00 | 0.00 | 0.00 | 48 | 1008.4 |
| 20260503225541 | 20 | 263 | 3.2 | 9.7 | 0.00 | 0.00 | 0.00 | 47 | 1008.4 |
| 20260503225041 | 20 | 260 | 1.6 | 9.7 | 0.00 | 0.00 | 0.00 | 48 | 1008.5 |
| 20260503224540 | 20 | 259 | 3.2 | 11.3 | 0.00 | 0.00 | 0.00 | 47 | 1008.5 |
| 20260503224040 | 20 | 248 | 4.8 | 11.3 | 0.00 | 0.00 | 0.00 | 47 | 1008.5 |
| 20260503223542 | 20 | 221 | 3.2 | 9.7 | 0.00 | 0.00 | 0.00 | 47 | 1008.5 |
| 20260503223042 | 20 | 274 | 3.2 | 9.7 | 0.00 | 0.00 | 0.00 | 45 | 1008.5 |
| 20260503222538 | 20 | 250 | 1.6 | 9.7 | 0.00 | 0.00 | 0.00 | 46 | 1008.5 |
| 20260503222038 | 20 | 262 | 3.2 | 11.3 | 0.00 | 0.00 | 0.00 | 46 | 1008.7 |
| 20260503221542 | 20 | 245 | 1.6 | 11.3 | 0.00 | 0.00 | 0.00 | 47 | 1008.7 |
| 20260503221036 | 20 | 250 | 4.8 | 9.7 | 0.00 | 0.00 | 0.00 | 45 | 1008.7 |
| 20260503220537 | 20 | 243 | 1.6 | 17.7 | 0.00 | 0.00 | 0.00 | 47 | 1008.8 |
| 20260503215537 | 20 | 230 | 6.4 | 17.7 | 0.00 | 0.00 | 0.00 | 46 | 1008.9 |
| 20260503215036 | 20 | 238 | 6.4 | 14.5 | 0.00 | 0.00 | 0.00 | 46 | 1008.8 |
| 20260503214535 | 20 | 259 | 3.2 | 12.9 | 0.00 | 0.00 | 0.00 | 48 | 1008.8 |
| 20260503214039 | 20 | 221 | 4.8 | 12.9 | 0.00 | 0.00 | 0.00 | 46 | 1008.9 |
| 20260503213534 | 20 | 222 | 3.2 | 9.7 | 0.00 | 0.00 | 0.00 | 48 | 1008.9 |
| 20260503213039 | 19 | 245 | 3.2 | 12.9 | 0.00 | 0.00 | 0.00 | 47 | 1009.0 |
| 20260503212535 | 19 | 274 | 3.2 | 14.5 | 0.00 | 0.00 | 0.00 | 47 | 1009.0 |
| 20260503212034 | 19 | 274 | 4.8 | 14.5 | 0.00 | 0.00 | 0.00 | 45 | 1009.1 |
| 20260503211540 | 19 | 242 | 3.2 | 11.3 | 0.00 | 0.00 | 0.00 | 48 | 1009.1 |
| 20260503211032 | 19 | 264 | 3.2 | 14.5 | 0.00 | 0.00 | 0.00 | 47 | 1009.1 |
| 20260503210532 | 19 | 250 | 3.2 | 17.7 | 0.00 | 0.00 | 0.00 | 45 | 1009.1 |
| 20260503205532 | 19 | 279 | 4.8 | 20.9 | 0.00 | 0.00 | 0.00 | 44 | 1009.1 |
| 20260503205032 | 19 | 254 | 8.0 | 20.9 | 0.00 | 0.00 | 0.00 | 44 | 1009.2 |
| 20260503204531 | 20 | 220 | 4.8 | 16.1 | 0.00 | 0.00 | 0.00 | 44 | 1009.2 |
| 20260503204031 | 20 | 285 | 4.8 | 17.7 | 0.00 | 0.00 | 0.00 | 42 | 1009.4 |
| 20260503203532 | 20 | 233 | 8.0 | 17.7 | 0.00 | 0.00 | 0.00 | 43 | 1009.2 |
| 20260503203034 | 20 | 255 | 3.2 | 14.5 | 0.00 | 0.00 | 0.00 | 44 | 1009.1 |
| 20260503202530 | 20 | 257 | 4.8 | 16.1 | 0.00 | 0.00 | 0.00 | 44 | 1009.5 |
| 20260503202031 | 20 | 216 | 4.8 | 19.3 | 0.00 | 0.00 | 0.00 | 42 | 1009.5 |
| 20260503201531 | 20 | 265 | 6.4 | 19.3 | 0.00 | 0.00 | 0.00 | 42 | 1009.5 |
| 20260503201028 | 20 | 88 | 4.8 | 24.1 | 0.00 | 0.00 | 0.00 | 42 | 1009.6 |
| 20260503200528 | 20 | 94 | 4.8 | 19.3 | 0.00 | 0.00 | 0.00 | 42 | 1009.7 |
| 20260503195528 | 20 | 247 | 6.4 | 25.7 | 0.00 | 0.00 | 0.00 | 43 | 1009.5 |
| 20260503195027 | 20 | 244 | 6.4 | 25.7 | 0.00 | 0.00 | 0.00 | 41 | 1009.8 |
| 20260503194530 | 20 | 177 | 8.0 | 16.1 | 0.00 | 0.00 | 0.00 | 40 | 1010.2 |
| 20260503194026 | 20 | 83 | 6.4 | 16.1 | 0.00 | 0.00 | 0.00 | 41 | 1010.1 |
| 20260503193528 | 20 | 219 | 6.4 | 17.7 | 0.00 | 0.00 | 0.00 | 41 | 1010.0 |
| 20260503193024 | 20 | 220 | 3.2 | 19.3 | 0.00 | 0.00 | 0.00 | 43 | 1010.1 |
| 20260503192523 | 20 | 91 | 3.2 | 20.9 | 0.00 | 0.00 | 0.00 | 42 | 1010.1 |
| 20260503192023 | 20 | 248 | 6.4 | 20.9 | 0.00 | 0.00 | 0.00 | 41 | 1010.3 |
| 20260503191525 | 20 | 240 | 4.8 | 17.7 | 0.00 | 0.00 | 0.00 | 43 | 1010.2 |
| 20260503191021 | 20 | 233 | 4.8 | 19.3 | 0.00 | 0.00 | 0.00 | 41 | 1010.1 |
| 20260503190520 | 20 | 26 | 4.8 | 19.3 | 0.00 | 0.00 | 0.00 | 42 | 1010.2 |
| 20260503185518 | 19 | 228 | 4.8 | 19.3 | 0.00 | 0.00 | 0.00 | 42 | 1010.1 |
| 20260503185019 | 19 | 101 | 6.4 | 20.9 | 0.00 | 0.00 | 0.00 | 42 | 1010.3 |
| 20260503184521 | 18 | 302 | 8.0 | 22.5 | 0.00 | 0.00 | 0.00 | 43 | 1010.4 |
| 20260503184014 | 18 | 219 | 8.0 | 27.4 | 0.00 | 0.00 | 0.00 | 44 | 1010.7 |
| 20260503183520 | 18 | 245 | 9.7 | 27.4 | 0.00 | 0.00 | 0.00 | 44 | 1010.7 |
| 20260503183023 | 18 | 274 | 8.0 | 20.9 | 0.00 | 0.00 | 0.00 | 44 | 1010.7 |
| 20260503182512 | 18 | 176 | 6.4 | 20.9 | 0.00 | 0.00 | 0.00 | 45 | 1010.7 |
| 20260503182010 | 18 | 241 | 4.8 | 19.3 | 0.00 | 0.00 | 0.00 | 46 | 1010.9 |
| 20260503181523 | 18 | 256 | 6.4 | 20.9 | 0.00 | 0.00 | 0.00 | 45 | 1011.0 |
| 20260503181009 | 17 | 308 | 8.0 | 25.7 | 0.00 | 0.00 | 0.00 | 46 | 1011.1 |
| 20260503180509 | 17 | 295 | 6.4 | 25.7 | 0.00 | 0.00 | 0.00 | 44 | 1011.0 |
| 20260503175507 | 17 | 19 | 3.2 | 22.5 | 0.00 | 0.00 | 0.00 | 48 | 1011.4 |
| 20260503175009 | 17 | 178 | 8.0 | 25.7 | 0.00 | 0.00 | 0.00 | 47 | 1011.7 |
| 20260503174504 | 16 | 148 | 11.3 | 27.4 | 0.00 | 0.00 | 0.00 | 49 | 1011.7 |
| 20260503174002 | 16 | 108 | 12.9 | 27.4 | 0.00 | 0.00 | 0.00 | 49 | 1012.0 |
| 20260503173502 | 16 | 98 | 4.8 | 29.0 | 0.00 | 0.00 | 0.00 | 49 | 1012.3 |
| 20260503173003 | 16 | 226 | 6.4 | 29.0 | 0.00 | 0.00 | 0.00 | 49 | 1012.5 |
| 20260503172500 | 16 | 231 | 6.4 | 17.7 | 0.00 | 0.00 | 0.00 | 49 | 1012.5 |
| 20260503172100 | 16 | 250 | 1.6 | 20.9 | 0.00 | 0.00 | 0.00 | 51 | 1012.5 |
| 20260503171558 | 15 | 72 | 6.4 | 20.9 | 0.00 | 0.00 | 0.00 | 50 | 1012.5 |
| 20260503171057 | 15 | 235 | 4.8 | 14.5 | 0.00 | 0.00 | 0.00 | 52 | 1013.0 |
| 20260503170556 | 15 | 300 | 4.8 | 14.5 | 0.00 | 0.00 | 0.00 | 51 | 1013.3 |
| 20260503170156 | 15 | 1 | 3.2 | 17.7 | 0.00 | 0.00 | 0.00 | 53 | 1013.7 |
| 20260503160150 | 13 | 262 | 1.6 | 11.3 | 0.00 | 0.00 | 0.00 | 55 | 1014.5 |
| 20260503150540 | 13 | 222 | 3.2 | 11.3 | 0.00 | 0.00 | 0.00 | 59 | 1015.4 |
| 20260503150139 | 12 | 103 | 4.8 | 14.5 | 0.00 | 0.00 | 0.00 | 62 | 1015.6 |
| 20260503140134 | 11 | 264 | 3.2 | 11.3 | 0.00 | 0.00 | 0.00 | 60 | 1016.1 |
| 20260503131025 | 9 | 108 | 0.0 | 4.8 | 0.00 | 0.00 | 0.00 | 67 | 1017.0 |
| 20260503130523 | 9 | 246 | 0.0 | 11.3 | 0.00 | 0.00 | 0.00 | 67 | 1016.9 |
| 20260503130124 | 9 | 249 | 0.0 | 9.7 | 0.00 | 0.00 | 0.00 | 69 | 1017.0 |
| 20260503120116 | 7 | 236 | 1.6 | 9.7 | 0.00 | 0.00 | 0.00 | 73 | 1016.9 |
| 20260503110517 | 6 | 287 | 0.0 | 6.4 | 0.00 | 0.00 | 0.00 | 73 | 1016.8 |
| 20260503110110 | 6 | 280 | 0.0 | 4.8 | 0.00 | 0.00 | 0.00 | 72 | 1016.8 |
| 20260503100133 | 7 | 141 | 0.0 | 8.0 | 0.00 | 0.00 | 0.00 | 68 | 1017.0 |
| 20260503090159 | 7 | 219 | 1.6 | 6.4 | 0.00 | 0.00 | 0.00 | 66 | 1017.3 |